TimeMST,TemperatureF,Dew PointF,Humidity,Sea Level PressureIn,VisibilityMPH,Wind Direction,Wind SpeedMPH,Gust SpeedMPH,PrecipitationIn,Events,Conditions,WindDirDegrees,DateUTC
12:15 AM,86.0,64.4,48,29.87,10.0,NW,3.5,-,N/A,,Overcast,310,2013-09-01 07:15:00
12:35 AM,86.0,66.2,51,29.87,10.0,SW,5.8,-,N/A,,Overcast,230,2013-09-01 07:35:00
12:55 AM,84.2,66.2,55,29.87,10.0,West,6.9,-,N/A,,Overcast,260,2013-09-01 07:55:00
1:15 AM,84.2,64.4,51,29.86,10.0,West,9.2,-,N/A,,Mostly Cloudy,270,2013-09-01 08:15:00
1:35 AM,84.2,64.4,51,29.86,10.0,WNW,8.1,-,N/A,,Partly Cloudy,290,2013-09-01 08:35:00
1:55 AM,84.2,64.4,51,29.86,10.0,WNW,3.5,-,N/A,,Scattered Clouds,290,2013-09-01 08:55:00
2:15 AM,84.2,66.2,55,29.85,10.0,North,3.5,-,N/A,,Overcast,350,2013-09-01 09:15:00
2:35 AM,82.4,68.0,62,29.86,10.0,Calm,Calm,-,N/A,,Overcast,0,2013-09-01 09:35:00
2:55 AM,82.4,68.0,62,29.86,10.0,NNW,4.6,-,N/A,,Overcast,330,2013-09-01 09:55:00
3:15 AM,84.2,68.0,58,29.85,10.0,NE,3.5,-,N/A,,Mostly Cloudy,40,2013-09-01 10:15:00
3:35 AM,84.2,68.0,58,29.85,10.0,NNE,3.5,-,N/A,,Mostly Cloudy,30,2013-09-01 10:35:00
3:55 AM,84.2,68.0,58,29.86,10.0,NNW,4.6,-,N/A,,Overcast,330,2013-09-01 10:55:00
4:15 AM,84.2,66.2,55,29.86,10.0,NNE,6.9,-,N/A,,Overcast,20,2013-09-01 11:15:00
4:35 AM,84.2,66.2,55,29.86,10.0,North,6.9,-,N/A,,Mostly Cloudy,10,2013-09-01 11:35:00
4:55 AM,84.2,66.2,55,29.87,10.0,NNE,5.8,-,N/A,,Partly Cloudy,30,2013-09-01 11:55:00
5:15 AM,82.4,68.0,62,29.86,10.0,ENE,4.6,-,N/A,,Clear,60,2013-09-01 12:15:00
5:35 AM,82.4,68.0,62,29.87,10.0,Calm,Calm,-,N/A,,Clear,0,2013-09-01 12:35:00
5:55 AM,80.6,68.0,65,29.87,10.0,NW,3.5,-,N/A,,Clear,310,2013-09-01 12:55:00
6:15 AM,80.6,68.0,65,29.88,10.0,NNW,5.8,-,N/A,,Clear,330,2013-09-01 13:15:00
6:35 AM,82.4,68.0,62,29.88,10.0,North,3.5,-,N/A,,Clear,10,2013-09-01 13:35:00
6:55 AM,84.2,68.0,58,29.89,10.0,North,3.5,-,N/A,,Clear,10,2013-09-01 13:55:00
7:15 AM,84.2,68.0,58,29.90,10.0,East,4.6,-,N/A,,Clear,90,2013-09-01 14:15:00
7:35 AM,86.0,68.0,55,29.90,10.0,Calm,Calm,-,N/A,,Clear,0,2013-09-01 14:35:00
7:55 AM,86.0,68.0,55,29.90,10.0,South,5.8,-,N/A,,Clear,170,2013-09-01 14:55:00
8:15 AM,86.0,68.0,55,29.90,10.0,SSE,3.5,-,N/A,,Clear,160,2013-09-01 15:15:00
8:35 AM,86.0,68.0,55,29.90,10.0,South,4.6,-,N/A,,Clear,180,2013-09-01 15:35:00
8:55 AM,87.8,68.0,52,29.89,10.0,SE,4.6,-,N/A,,Clear,130,2013-09-01 15:55:00
9:15 AM,87.8,68.0,52,29.90,10.0,SE,4.6,-,N/A,,Clear,130,2013-09-01 16:15:00
9:35 AM,89.6,69.8,52,29.89,10.0,SSE,4.6,-,N/A,,Clear,160,2013-09-01 16:35:00
9:55 AM,89.6,68.0,49,29.89,10.0,SSE,3.5,-,N/A,,Clear,160,2013-09-01 16:55:00
10:15 AM,91.4,69.8,49,29.89,10.0,Calm,Calm,-,N/A,,Clear,0,2013-09-01 17:15:00
10:35 AM,91.4,68.0,46,29.89,10.0,WSW,3.5,-,N/A,,Clear,240,2013-09-01 17:35:00
10:55 AM,93.2,66.2,41,29.88,10.0,Calm,Calm,-,N/A,,Clear,0,2013-09-01 17:55:00
11:15 AM,93.2,66.2,41,29.88,10.0,SE,4.6,-,N/A,,Clear,140,2013-09-01 18:15:00
11:35 AM,93.2,68.0,44,29.88,10.0,SSW,4.6,-,N/A,,Clear,210,2013-09-01 18:35:00
11:55 AM,95.0,68.0,41,29.87,10.0,South,5.8,-,N/A,,Clear,180,2013-09-01 18:55:00
12:15 PM,95.0,66.2,39,29.87,10.0,Calm,Calm,-,N/A,,Clear,0,2013-09-01 19:15:00
12:35 PM,96.8,64.4,34,29.86,10.0,South,6.9,-,N/A,,Clear,170,2013-09-01 19:35:00
12:55 PM,96.8,62.6,32,29.86,10.0,SSE,4.6,-,N/A,,Clear,150,2013-09-01 19:55:00
1:15 PM,98.6,64.4,32,29.85,10.0,SSE,6.9,-,N/A,,Clear,150,2013-09-01 20:15:00
1:35 PM,98.6,66.2,35,29.85,10.0,SSW,5.8,-,N/A,,Clear,210,2013-09-01 20:35:00
1:55 PM,98.6,66.2,35,29.83,10.0,SW,5.8,-,N/A,,Clear,230,2013-09-01 20:55:00
2:15 PM,98.6,64.4,32,29.82,10.0,SSE,5.8,-,N/A,,Clear,150,2013-09-01 21:15:00
2:35 PM,100.4,64.4,31,29.81,10.0,SSW,5.8,-,N/A,,Clear,200,2013-09-01 21:35:00
2:55 PM,100.4,60.8,27,29.80,10.0,South,3.5,-,N/A,,Clear,190,2013-09-01 21:55:00
3:15 PM,102.2,59.0,24,29.79,10.0,WNW,9.2,-,N/A,,Clear,290,2013-09-01 22:15:00
3:35 PM,102.2,59.0,24,29.78,10.0,WSW,3.5,-,N/A,,Clear,240,2013-09-01 22:35:00
3:55 PM,102.2,59.0,24,29.77,10.0,West,9.2,-,N/A,,Clear,270,2013-09-01 22:55:00
4:15 PM,102.2,60.8,26,29.76,10.0,WSW,5.8,-,N/A,,Clear,250,2013-09-01 23:15:00
4:35 PM,102.2,59.0,24,29.76,10.0,WNW,11.5,-,N/A,,Clear,300,2013-09-01 23:35:00
4:55 PM,102.2,59.0,24,29.76,10.0,NNW,10.4,-,N/A,,Clear,330,2013-09-01 23:55:00
5:15 PM,102.2,59.0,24,29.76,10.0,West,10.4,-,N/A,,Clear,280,2013-09-02 00:15:00
5:35 PM,102.2,59.0,24,29.76,10.0,WNW,11.5,-,N/A,,Clear,290,2013-09-02 00:35:00
5:55 PM,100.4,59.0,25,29.76,10.0,WNW,6.9,-,N/A,,Clear,290,2013-09-02 00:55:00
6:15 PM,100.4,60.8,27,29.76,10.0,WNW,6.9,-,N/A,,Clear,290,2013-09-02 01:15:00
6:35 PM,98.6,62.6,30,29.77,10.0,WNW,8.1,-,N/A,,Clear,300,2013-09-02 01:35:00
6:55 PM,98.6,62.6,30,29.78,10.0,WNW,5.8,-,N/A,,Partly Cloudy,290,2013-09-02 01:55:00
7:15 PM,96.8,60.8,30,29.78,10.0,WNW,6.9,-,N/A,,Partly Cloudy,290,2013-09-02 02:15:00
7:35 PM,95.0,59.0,30,29.78,10.0,WNW,4.6,-,N/A,,Partly Cloudy,300,2013-09-02 02:35:00
7:55 PM,95.0,59.0,30,29.79,10.0,WNW,6.9,-,N/A,,Scattered Clouds,300,2013-09-02 02:55:00
8:15 PM,95.0,59.0,30,29.79,10.0,NW,5.8,-,N/A,,Scattered Clouds,310,2013-09-02 03:15:00
8:35 PM,93.2,62.6,36,29.80,10.0,WNW,4.6,-,N/A,,Overcast,300,2013-09-02 03:35:00
8:55 PM,93.2,64.4,38,29.81,10.0,West,5.8,-,N/A,,Mostly Cloudy,280,2013-09-02 03:55:00
9:15 PM,93.2,64.4,38,29.81,10.0,WNW,5.8,-,N/A,,Clear,300,2013-09-02 04:15:00
9:35 PM,91.4,64.4,41,29.81,10.0,NNW,4.6,-,N/A,,Clear,330,2013-09-02 04:35:00
9:55 PM,91.4,66.2,43,29.82,10.0,SW,3.5,-,N/A,,Clear,220,2013-09-02 04:55:00
10:15 PM,91.4,66.2,43,29.82,10.0,West,6.9,-,N/A,,Clear,260,2013-09-02 05:15:00
10:35 PM,91.4,66.2,43,29.82,10.0,West,6.9,-,N/A,,Clear,260,2013-09-02 05:35:00
10:55 PM,89.6,66.2,46,29.82,10.0,West,6.9,-,N/A,,Clear,280,2013-09-02 05:55:00
11:15 PM,89.6,64.4,43,29.82,10.0,WNW,8.1,-,N/A,,Partly Cloudy,290,2013-09-02 06:15:00
11:35 PM,89.6,62.6,40,29.81,10.0,NW,8.1,-,N/A,,Partly Cloudy,310,2013-09-02 06:35:00
11:55 PM,89.6,62.6,40,29.82,10.0,NW,6.9,-,N/A,,Clear,320,2013-09-02 06:55:00